Regional Weather Roundup
Issued by NWS

Home | Current Version | Previous Version | Graphics & Text | Print | Product List | Glossary On
Versions: 1 2 3 4 5 6 7 8 9 10 11 12 13 14 15 16 17 18 19 20 21 22 23 24 25 26 27 28 29 30 31 32 33 34 35 36 37 38 39 40 41 42 43 44 45 46 47 48 49 50
000
ASUS45 KTFX 301710
RWRMT
MONTANA REGIONAL WEATHER ROUNDUP
NATIONAL WEATHER SERVICE GREAT FALLS MT
1100 AM MDT SAT JUL 30 2016

NOTE: "FAIR" INDICATES FEW OR NO CLOUDS BELOW 12000 FEET WITH NO
SIGNIFICANT WEATHER AND/OR OBSTRUCTIONS TO VISIBILITY.

MTZ001>007-043-301800-
WEST OF THE DIVIDE

CITY           SKY/WX    TMP DP  RH WIND       PRES   REMARKS
MISSOULA       SUNNY     77  50  38 SE6       29.86F
BUTTE          SUNNY     78  41  26 NE5       30.00F
MULLAN PASS    SUNNY     66  43  43 VRB3      30.01S
DEER LODGE       N/A     77  46  33 E3        29.96F
EUREKA           N/A     75  52  43 E3        29.78F
HAMILTON         N/A     79  46  31 CALM      29.87F
LIBBY            N/A     77  48  36 W3        29.77F
PLAINS           N/A     81  51  35 CALM      29.80F
RONAN            N/A     82  55  39 SE5       29.88S
$$

MTZ008-052>055-301800-
SOUTHWEST MONTANA

CITY           SKY/WX    TMP DP  RH WIND       PRES   REMARKS
BOZEMAN        SUNNY     79  50  36 CALM      29.94F
DILLON         SUNNY     76  50  40 CALM      29.98F
W YELLOWSTONE  SUNNY     73  37  27 W5        30.11F
ENNIS          SUNNY     82  41  23 SW7       30.03
THREE FORKS      N/A     81  -5   3 CALM      29.92F
TWIN BRIDGES     N/A     75  45  34 S6        29.97F
$$

MTZ009-010-012-014-046-048-049-054-301800-
EAST SLOPES AND CENTRAL MONTANA

CITY           SKY/WX    TMP DP  RH WIND       PRES   REMARKS
CUT BANK       SUNNY     76  51  41 NE13      29.83F
GREAT FALLS    SUNNY     86  47  25 SW14      29.81F
MALMSTROM AFB  SUNNY     85  49  29 SW17      29.80F
HELENA         SUNNY     81  50  33 VRB6      29.87F
CHOTEAU          N/A     88  41  19 NW7       29.84
CONRAD           N/A     79  58  48 NW9       29.87R
$$

MTZ011-013-016-021-045-047-050-051-301800-
NORTH CENTRAL MONTANA

CITY           SKY/WX    TMP DP  RH WIND       PRES   REMARKS
HAVRE          SUNNY     83  57  41 CALM      29.74F
N BAR RANCH      N/A     82  48  30 SW15G29   29.90
CHINOOK          N/A     79  64  61 E10       29.74F
$$

MTZ017>020-022>027-061-062-301800-
NORTHEAST MONTANA

CITY           SKY/WX    TMP DP  RH WIND       PRES   REMARKS
GLASGOW        SUNNY     80  57  45 SE12      29.82F
JORDAN           N/A     84  55  36 SE15      29.83F
SIDNEY         SUNNY     81  54  39 E3        29.86F
WOLF POINT     SUNNY     83  55  38 E9        29.84F
PLENTYWOOD       N/A     81  48  32 S6        29.87F
POPLAR           N/A     81  54  39 E7        29.85F
SCOBEY           N/A     79  52  38 SE5       29.86F
$$

MTZ028>42-056>058-301800-
SOUTHCENTRAL AND SOUTHEAST MONTANA

CITY           SKY/WX    TMP DP  RH WIND       PRES   REMARKS
BAKER          SUNNY     80  55  42 E10       29.91F
BILLINGS       MOSUNNY   80  51  36 S6        29.87F
LIVINGSTON     SUNNY     81  46  29 NW13      29.91F
MILES CITY     SUNNY     84  53  34 E7        29.85F
EKALAKA          N/A     82  55  39 SE9       29.91S
FORSYTH          N/A     84  54  34 E9        29.82F
LAUREL           N/A     78  54  43 NE6       29.87F
ROUNDUP          N/A     79  50  36 CALM      29.79F
$$

REGIONAL REPORTS...DAKOTAS

CITY           SKY/WX    TMP DP  RH WIND       PRES   REMARKS
WILLISTON      SUNNY     81  55  40 S7        29.87F
MINOT          SUNNY     83  58  42 CALM      29.87F
DICKINSON      SUNNY     78  54  43 VRB3      29.88F
BEACH            N/A     81  52  36 E8        29.92F
CROSBY           N/A     77  63  61 S6        29.90S
WATFORD CITY     N/A     79  55  44 SE5       29.88F
BISMARCK       PTSUNNY   76  65  68 S17       29.89F
GRAND FORKS    PTSUNNY   79  62  56 S17       29.93F
FARGO          MOSUNNY   78  62  57 S9        29.97F
BUFFALO SD       N/A     83  56  39 E10       29.85F
RAPID CITY     SUNNY     83  58  42 S14G21    29.93F
$$

REGIONAL REPORTS...WYOMING/IDAHO/WASHINGTON

CITY           SKY/WX    TMP DP  RH WIND       PRES   REMARKS
GILLETTE       SUNNY     86  45  23 W8        29.94S
SHERIDAN       SUNNY     87  51  28 NE7       29.89F
BUFFALO WY     SUNNY     84  49  29 SE9       29.97F
CODY             N/A    N/A N/A N/A MISG        N/A
YELLOWSTONE LA   N/A     65  47  52 E6        30.21F
IDAHO FALLS    SUNNY     82  45  27 VRB3      29.98F
SALMON         SUNNY     73  46  38 CALM      29.90F
BOISE          SUNNY     86  42  21 W9        29.85S HAZE
SPOKANE        SUNNY     79  45  29 SW13      29.78F
$$

REGIONAL REPORTS...ALBERTA

CITY           SKY/WX    TMP DP  RH WIND       PRES   REMARKS
EDMONTON       SUNNY     66  57  72 E2        29.76F
CALGARY        MOSUNNY   68  54  60 N9        29.81F
LETHBRIDGE     MOSUNNY   72  57  60 SE2       29.79R
MEDICINE HAT   MOSUNNY   81  59  47 E10       29.75F
WATERTON GATE    N/A     73  55  53 E10         N/A
MILK RIVER       N/A     73  55  53 SE6         N/A
ONEFOUR          N/A     79  52  38 NE2         N/A
$$

REGIONAL REPORTS...SASKATCHEWAN

CITY           SKY/WX    TMP DP  RH WIND       PRES   REMARKS
SWIFT CURRENT  SUNNY     79  61  53 SE14G20   29.79F
REGINA         MOSUNNY   77  63  61 S8        29.83F
SASKATOON      PTSUNNY   77  59  53 SW12      29.79F
CYPRESS HILLS    N/A     59  54  82 NW6         N/A
VAL MARIE        N/A     79  57  47 S14G20      N/A
ROCKGLEN         N/A     77  54  44 S12         N/A
$$



USA.gov is the U.S. government's official web portal to all federal, state and local government web resources and services.